• In Czech Republic
  • List of Countries
  • For 7 days
  • Water Temperature
  • Satellite Maps
  • Weather Map
  • Weather Widgets
  • user-avatar
    Login

    Hourly Weather Krasnoselskoe

    Today, 23 October, Tuesday

    Time Temperature Precipitation Wind Pressure Humidity
    00:00 +1°C° 0 mm 4 mps 745 mmHg 73%
    01:00 +1°C° 0 mm 4 mps 745 mmHg 71%
    02:00 +3°C° 0 mm 4 mps 745 mmHg 69%
    03:00 +2°C° 0 mm 5 mps 744 mmHg 67%
    04:00 +2°C° 0 mm 5 mps 744 mmHg 67%
    05:00 +3°C° 0 mm 5 mps 743 mmHg 67%
    06:00 +3°C° 0 mm 5 mps 743 mmHg 67%
    07:00 +3°C° 0 mm 5 mps 742 mmHg 65%
    08:00 +3°C° 0 mm 5 mps 742 mmHg 64%
    09:00 +4°C° 0 mm 6 mps 742 mmHg 62%
    10:00 +4°C° 0 mm 6 mps 741 mmHg 62%
    11:00 +5°C° 0 mm 6 mps 741 mmHg 61%
    12:00 +5°C° 0 mm 6 mps 740 mmHg 61%
    13:00 +5°C° 0.1 mm 6 mps 740 mmHg 59%
    14:00 +5°C° 0.1 mm 6 mps 739 mmHg 57%
    15:00 +5°C° 0.1 mm 6 mps 739 mmHg 55%
    16:00 +5°C° 0.2 mm 6 mps 738 mmHg 58%
    17:00 +5°C° 0.2 mm 6 mps 737 mmHg 61%
    18:00 +5°C° 0.2 mm 5 mps 737 mmHg 64%
    19:00 +5°C° 0.2 mm 6 mps 736 mmHg 66%
    20:00 +5°C° 0.2 mm 6 mps 736 mmHg 67%
    21:00 +5°C° 0.2 mm 6 mps 735 mmHg 69%
    22:00 +6°C° 0 mm 5 mps 734 mmHg 69%
    23:00 +6°C° 0 mm 5 mps 734 mmHg 70%

    Tomorrow, 24 October, Wednesday

    Time Temperature Precipitation Wind Pressure Humidity
    00:00 +6°C° 0 mm 5 mps 733 mmHg 70%
    01:00 +6°C° 0.1 mm 4 mps 733 mmHg 73%
    02:00 +6°C° 0.1 mm 4 mps 733 mmHg 76%
    03:00 +6°C° 0.1 mm 4 mps 733 mmHg 80%
    04:00 +6°C° 0 mm 4 mps 732 mmHg 82%
    05:00 +5°C° 0 mm 3 mps 732 mmHg 85%
    06:00 +5°C° 0 mm 3 mps 732 mmHg 87%
    07:00 +6°C° 0.1 mm 4 mps 731 mmHg 88%
    08:00 +6°C° 0.1 mm 4 mps 731 mmHg 88%
    09:00 +7°C° 0.1 mm 4 mps 731 mmHg 88%
    10:00 +8°C° 0.1 mm 5 mps 731 mmHg 84%
    11:00 +9°C° 0.1 mm 5 mps 731 mmHg 80%
    12:00 +9°C° 0.1 mm 5 mps 731 mmHg 76%
    13:00 +9°C° 0 mm 5 mps 731 mmHg 74%
    14:00 +9°C° 0 mm 5 mps 731 mmHg 71%
    15:00 +10°C° 0 mm 4 mps 731 mmHg 69%
    16:00 +8°C° 0 mm 4 mps 731 mmHg 70%
    17:00 +8°C° 0 mm 4 mps 731 mmHg 71%
    18:00 +8°C° 0 mm 3 mps 731 mmHg 72%
    19:00 +7°C° 0 mm 4 mps 731 mmHg 72%
    20:00 +7°C° 0 mm 4 mps 731 mmHg 73%
    21:00 +6°C° 0 mm 4 mps 731 mmHg 73%
    22:00 +7°C° 0 mm 4 mps 731 mmHg 74%
    23:00 +7°C° 0 mm 5 mps 730 mmHg 75%

    Day after tomorrow, 25 October, Thursday

    Time Temperature Precipitation Wind Pressure Humidity
    00:00 +7°C° 0 mm 5 mps 730 mmHg 75%
    01:00 +7°C° 0.1 mm 5 mps 730 mmHg 76%
    02:00 +7°C° 0.1 mm 6 mps 730 mmHg 77%
    03:00 +7°C° 0.1 mm 6 mps 730 mmHg 78%
    04:00 +8°C° 0.9 mm 6 mps 730 mmHg 81%
    05:00 +8°C° 0.9 mm 6 mps 729 mmHg 84%
    06:00 +8°C° 0.9 mm 6 mps 729 mmHg 86%
    07:00 +8°C° 0.4 mm 7 mps 729 mmHg 85%
    08:00 +7°C° 0.4 mm 8 mps 729 mmHg 83%
    09:00 +9°C° 0.4 mm 8 mps 728 mmHg 82%
    10:00 +9°C° 0.4 mm 8 mps 728 mmHg 80%
    11:00 +9°C° 0.4 mm 8 mps 728 mmHg 79%
    12:00 +10°C° 0.4 mm 8 mps 727 mmHg 77%
    13:00 +11°C° 0 mm 8 mps 727 mmHg 71%
    14:00 +11°C° 0 mm 7 mps 726 mmHg 66%
    15:00 +12°C° 0 mm 7 mps 726 mmHg 60%
    16:00 +12°C° 0 mm 7 mps 725 mmHg 61%
    17:00 +12°C° 0 mm 7 mps 725 mmHg 63%
    18:00 +12°C° 0 mm 7 mps 724 mmHg 64%
    19:00 +13°C° 0 mm 6 mps 724 mmHg 67%
    20:00 +13°C° 0 mm 6 mps 724 mmHg 70%
    21:00 +13°C° 0 mm 5 mps 724 mmHg 73%
    22:00 +10°C° 0.7 mm 5 mps 725 mmHg 75%
    23:00 +9°C° 0.7 mm 5 mps 725 mmHg 77%

    26 October, Friday

    Time Temperature Precipitation Wind Pressure Humidity
    00:00 +8°C° 0.7 mm 5 mps 725 mmHg 79%
    01:00 +7°C° 1.2 mm 4 mps 725 mmHg 79%
    02:00 +6°C° 1.2 mm 4 mps 726 mmHg 80%
    03:00 +5°C° 1.2 mm 3 mps 726 mmHg 80%
    04:00 +5°C° 0.3 mm 3 mps 726 mmHg 81%
    05:00 +5°C° 0.3 mm 3 mps 726 mmHg 82%
    06:00 +5°C° 0.3 mm 4 mps 727 mmHg 83%
    07:00 +5°C° 0 mm 4 mps 727 mmHg 80%
    08:00 +5°C° 0 mm 5 mps 727 mmHg 78%
    09:00 +5°C° 0 mm 5 mps 728 mmHg 75%
    10:00 +6°C° 0 mm 5 mps 728 mmHg 72%
    11:00 +5°C° 0 mm 6 mps 729 mmHg 69%
    12:00 +7°C° 0 mm 6 mps 729 mmHg 66%
    13:00 +7°C° 0 mm 6 mps 730 mmHg 66%
    14:00 +5°C° 0 mm 6 mps 730 mmHg 67%
    15:00 +6°C° 0 mm 5 mps 730 mmHg 67%
    16:00 +5°C° 0 mm 5 mps 731 mmHg 70%
    17:00 +5°C° 0 mm 4 mps 731 mmHg 72%
    18:00 +4°C° 0 mm 4 mps 732 mmHg 75%
    19:00 +4°C° 0 mm 4 mps 732 mmHg 76%
    20:00 +3°C° 0 mm 4 mps 732 mmHg 77%
    21:00 +3°C° 0 mm 4 mps 733 mmHg 79%
    22:00 +2°C° 0 mm 3 mps 733 mmHg 80%
    23:00 +2°C° 0 mm 3 mps 733 mmHg 81%

    27 October, Saturday

    Time Temperature Precipitation Wind Pressure Humidity
    00:00 +2°C° 0 mm 3 mps 733 mmHg 82%
    01:00 +1°C° 0 mm 3 mps 734 mmHg 82%
    02:00 +1°C° 0 mm 3 mps 734 mmHg 83%
    03:00 0°C° 0 mm 3 mps 734 mmHg 83%
    04:00 0°C° 0 mm 3 mps 735 mmHg 84%
    05:00 0°C° 0 mm 3 mps 735 mmHg 85%
    06:00 0°C° 0 mm 3 mps 736 mmHg 86%
    07:00 -1°C° 0 mm 4 mps 736 mmHg 82%
    08:00 0°C° 0 mm 4 mps 736 mmHg 77%
    09:00 0°C° 0 mm 4 mps 737 mmHg 73%
    10:00 +1°C° 0 mm 5 mps 737 mmHg 69%
    11:00 +1°C° 0 mm 5 mps 737 mmHg 66%
    12:00 +2°C° 0 mm 5 mps 737 mmHg 63%
    13:00 +2°C° 0 mm 5 mps 738 mmHg 64%
    14:00 +2°C° 0 mm 5 mps 738 mmHg 66%
    15:00 +3°C° 0 mm 4 mps 739 mmHg 67%
    16:00 +1°C° 0 mm 4 mps 739 mmHg 71%
    17:00 +1°C° 0 mm 4 mps 740 mmHg 76%
    18:00 0°C° 0 mm 4 mps 740 mmHg 80%
    19:00 0°C° 0 mm 4 mps 741 mmHg 80%
    20:00 0°C° 0 mm 4 mps 741 mmHg 80%
    21:00 0°C° 0 mm 4 mps 742 mmHg 80%
    22:00 -1°C° 0 mm 4 mps 742 mmHg 82%
    23:00 -1°C° 0 mm 4 mps 742 mmHg 83%

    28 October, Sunday

    Time Temperature Precipitation Wind Pressure Humidity
    00:00 -1°C° 0 mm 4 mps 743 mmHg 85%
    01:00 0°C° 0 mm 3 mps 743 mmHg 86%
    02:00 -1°C° 0 mm 3 mps 743 mmHg 86%
    03:00 -1°C° 0 mm 3 mps 744 mmHg 87%
    04:00 -2°C° 0 mm 4 mps 744 mmHg 87%
    05:00 -2°C° 0 mm 4 mps 744 mmHg 88%
    06:00 -2°C° 0 mm 4 mps 744 mmHg 88%
    07:00 -1°C° 0 mm 5 mps 744 mmHg 85%
    08:00 -1°C° 0 mm 6 mps 744 mmHg 81%
    09:00 0°C° 0 mm 7 mps 744 mmHg 77%
    10:00 +3°C° 0 mm 7 mps 744 mmHg 74%
    11:00 +4°C° 0 mm 8 mps 744 mmHg 71%
    12:00 +6°C° 0 mm 8 mps 744 mmHg 68%
    13:00 +6°C° 0.1 mm 8 mps 743 mmHg 70%
    14:00 +6°C° 0.1 mm 8 mps 743 mmHg 71%
    15:00 +6°C° 0.1 mm 8 mps 743 mmHg 73%
    16:00 +6°C° 0.1 mm 8 mps 743 mmHg 74%
    17:00 +6°C° 0.1 mm 8 mps 743 mmHg 76%
    18:00 +6°C° 0.1 mm 8 mps 743 mmHg 77%
    19:00 +6°C° 0.1 mm 8 mps 743 mmHg 76%
    20:00 +6°C° 0.1 mm 8 mps 743 mmHg 75%
    21:00 +6°C° 0.1 mm 7 mps 743 mmHg 74%
    22:00 +6°C° 0 mm 7 mps 743 mmHg 76%
    23:00 +6°C° 0 mm 7 mps 743 mmHg 77%

    29 October, Monday

    Time Temperature Precipitation Wind Pressure Humidity
    00:00 +6°C° 0 mm 7 mps 744 mmHg 79%
    01:00 +6°C° 0 mm 8 mps 744 mmHg 79%
    02:00 +6°C° 0 mm 8 mps 744 mmHg 79%
    03:00 +7°C° 0 mm 8 mps 744 mmHg 79%
    04:00 +6°C° 0 mm 8 mps 743 mmHg 77%
    05:00 +6°C° 0 mm 8 mps 743 mmHg 75%
    06:00 +6°C° 0 mm 8 mps 743 mmHg 73%
    07:00 +6°C° 0 mm 8 mps 744 mmHg 70%
    08:00 +7°C° 0 mm 9 mps 744 mmHg 67%
    09:00 +7°C° 0 mm 9 mps 744 mmHg 65%
    10:00 +8°C° 0 mm 9 mps 744 mmHg 65%
    11:00 +9°C° 0 mm 10 mps 744 mmHg 65%
    12:00 +11°C° 0 mm 10 mps 744 mmHg 66%
    13:00 +11°C° 0 mm 9 mps 744 mmHg 66%
    14:00 +11°C° 0 mm 9 mps 744 mmHg 67%
    15:00 +11°C° 0 mm 8 mps 744 mmHg 68%
    16:00 +11°C° 0 mm 8 mps 745 mmHg 70%
    17:00 +11°C° 0 mm 7 mps 745 mmHg 72%
    18:00 +11°C° 0 mm 7 mps 745 mmHg 74%
    19:00 +10°C° 0 mm 6 mps 746 mmHg 75%
    20:00 +10°C° 0 mm 6 mps 746 mmHg 77%
    21:00 +10°C° 0 mm 5 mps 747 mmHg 78%
    22:00 +9°C° 0.1 mm 5 mps 747 mmHg 81%
    23:00 +10°C° 0.1 mm 4 mps 748 mmHg 83%
    Show more